(346091) = 2007 VH30 = 2010 NF89 = 2012 SW39

Discovered at Kitt Peak on 2007-11-02 by Spacewatch.

Orbit

Orbit type: Main Belt

Note: WebGL enabled browser required.

epoch2024-03-31.0
epoch JD2460400.5
perihelion date2023-06-18.33473
perihelion JD2460113.83473
argument of perihelion (°)162.46733
ascending node (°)230.03984
inclination (°)2.55367
eccentricity0.0866625
perihelion distance (AU)2.7362105
Tisserand w.r.t. Jupiter3.2
ΔV w.r.t. Earth (km/sec)10.3
semimajor axis (AU)2.9958372
mean anomaly (°)54.48809
mean daily motion (°/day)0.19007570
aphelion distance (AU)3.255
period (years)5.19
P-vector [x]0.84309496
P-vector [y]0.48789672
P-vector [z]0.22615853
Q-vector [x]-0.53667922
Q-vector [y]0.79007660
Q-vector [z]0.29623365
absolute magnitude16.59
phase slope0.15
uncertainty0
referenceMPEC 2024-E152
observations used269
oppositions14
arc length (days)7801
first opposition used2002
last opposition used2024
residual rms (arc-secs)0.75
perturbers coarse indicatorM-v
perturbers precise indicator003Ek
first observation date used2002-10-31.0
last observation date used2024-03-10.0
computer nameMPCLINUX
JD of orbit computation2456670.816712
perihelion JD uncertainty (days)3.5981E-04
argument of perihelion uncertainty (°)1.4227E-04
ascending node uncertainty (°)1.2067E-04
inclination uncertainty (°)6.0066E-06
eccentricity uncertainty 6.9532E-08
perihelion distance uncertainty (AU)2.0836E-07
Minimum Orbit Intersection Distances (in AU)
for orbit epoch: 2460400.5, reference: E2024-EF2
Mercury2.40507
Venus2.01359
Earth1.74235
Mars1.26048
Jupiter2.13124
Saturn6.14275
Uranus15.2591
Neptune27.0893

Observations

275 total observations over interval: 2002 10 31.35035 – 2024 03 10.54931
These data are available for download (format description).

Date (UT) J2000 RA J2000 Dec Magn Location Ref
2002 10 31.35035 02 53 27.35 +17 07 56.5 21.0 V 291 – LPL/Spacewatch II MPS 435173
2002 10 31.37644 02 53 26.05 +17 07 48.7 21.4 V 291 – LPL/Spacewatch II MPS 435173
2002 10 31.40052 02 53 24.79 +17 07 43.3 20.9 V 291 – LPL/Spacewatch II MPS 435173
2002 12 09.07478 02 26 45.62 +14 27 51.4 22.7 V 291 – LPL/Spacewatch II MPS 435173
2002 12 09.09880 02 26 45.14 +14 27 48.4 22.1 V 291 – LPL/Spacewatch II MPS 435173
2002 12 09.12261 02 26 44.61 +14 27 44.8 21.9 V 291 – LPL/Spacewatch II MPS 435173
2005 04 10.38604 14 14 13.27 -14 43 59.9 21.4 R G96 – Mt. Lemmon Survey MPS 435173
2005 04 10.39134 14 14 13.16 -14 43 58.3 19.7 R G96 – Mt. Lemmon Survey MPS 435173
2005 04 10.39663 14 14 12.85 -14 43 57.0 21.2 R G96 – Mt. Lemmon Survey MPS 435173
2005 04 10.40196 14 14 12.63 -14 43 55.5 21.0 R G96 – Mt. Lemmon Survey MPS 435173
2007 11 02.08459 01 12 53.33 +09 23 51.4 20.2 V 691 – Steward Observatory, Kitt Peak-Spacewatch MPS 225203
2007 11 02.10324 01 12 52.62 +09 23 45.3 20.7 V 691 – Steward Observatory, Kitt Peak-Spacewatch MPS 225203
2007 11 02.12189 01 12 51.86 +09 23 39.9 20.5 V 691 – Steward Observatory, Kitt Peak-Spacewatch MPS 225203
2007 11 04.09942 01 11 36.79 +09 13 45.9   691 – Steward Observatory, Kitt Peak-Spacewatch MPS 225203
2007 11 04.11784 01 11 36.10 +09 13 41.2   691 – Steward Observatory, Kitt Peak-Spacewatch MPS 225203
2007 11 04.13626 01 11 35.41 +09 13 35.6   691 – Steward Observatory, Kitt Peak-Spacewatch MPS 225203
2007 11 13.08794 01 06 47.74 +08 33 33.7 21.3 V 691 – Steward Observatory, Kitt Peak-Spacewatch MPS 312552
2007 11 13.10897 01 06 47.16 +08 33 28.7 21.6 V 691 – Steward Observatory, Kitt Peak-Spacewatch MPS 312552
2007 11 13.12751 01 06 46.62 +08 33 24.1 20.8 V 691 – Steward Observatory, Kitt Peak-Spacewatch MPS 312552
2008 12 30.29162 08 35 15.25 +15 09 33.6 20.5 V G96 – Mt. Lemmon Survey MPS 435173
2008 12 30.30057 08 35 14.89 +15 09 34.8 20.7 V G96 – Mt. Lemmon Survey MPS 435173
2008 12 30.30952 08 35 14.56 +15 09 36.0 21.0 V G96 – Mt. Lemmon Survey MPS 435173
2008 12 30.32089 08 35 14.13 +15 09 36.5 21.1 V G96 – Mt. Lemmon Survey MPS 435173
2008 12 30.40104 08 35 10.87 +15 09 43.5 20.8 V 691 – Steward Observatory, Kitt Peak-Spacewatch MPS 435173
2008 12 30.41916 08 35 10.14 +15 09 45.3 21.0 V 691 – Steward Observatory, Kitt Peak-Spacewatch MPS 435173
2008 12 30.43783 08 35 09.39 +15 09 46.4 20.6 V 691 – Steward Observatory, Kitt Peak-Spacewatch MPS 435173
2009 01 16.40479 08 22 02.28 +15 44 32.6 21.0 V G96 – Mt. Lemmon Survey MPS 435173
2009 01 16.40954 08 22 02.06 +15 44 33.3 20.9 V G96 – Mt. Lemmon Survey MPS 435173
2009 01 16.41439 08 22 01.81 +15 44 34.4 20.9 V G96 – Mt. Lemmon Survey MPS 435173
2009 01 16.41930 08 22 01.52 +15 44 35.2 21.0 V G96 – Mt. Lemmon Survey MPS 435173
2010 07 02.168498 12 55 32.51 -06 48 30.7   C51 – WISE MPS 343933
2010 07 02.16850 12 55 32.55 -06 48 30.8   C51 – WISE MPS 343933
2010 07 02.168625 12 55 32.506 -06 48 30.96   C51 – WISE MPS 904133
2010 07 02.433105 12 55 40.88 -06 49 10.9   C51 – WISE MPS 343933
2010 07 02.565409 12 55 45.007 -06 49 30.72   C51 – WISE MPS 904133
2010 07 02.763928 12 55 51.46 -06 50 01.2   C51 – WISE MPS 343933
2010 07 02.830016 12 55 53.426 -06 50 12.37   C51 – WISE MPS 904133
2010 07 02.89623 12 55 55.54 -06 50 22.4   C51 – WISE MPS 343933
2010 07 02.962319 12 55 57.68 -06 50 32.3   C51 – WISE MPS 343933
2010 07 03.028409 12 55 59.86 -06 50 41.2   C51 – WISE MPS 343933
2010 07 03.028536 12 55 59.79 -06 50 41.8   C51 – WISE MPS 343933
2010 07 03.160712 12 56 04.08 -06 51 03.3   C51 – WISE MPS 343933
2010 07 03.160839 12 56 04.10 -06 51 03.3   C51 – WISE MPS 343933
2010 07 03.293015 12 56 08.34 -06 51 25.5   C51 – WISE MPS 343933
2010 07 03.425319 12 56 12.63 -06 51 43.9   C51 – WISE MPS 343933
2012 09 18.33627 00 14 08.98 +04 46 43.6 20.4 V G96 – Mt. Lemmon Survey MPS 433455
2012 09 18.34787 00 14 08.41 +04 46 40.1 20.4 V G96 – Mt. Lemmon Survey MPS 433455
2012 09 18.35943 00 14 07.94 +04 46 37.0 20.4 V G96 – Mt. Lemmon Survey MPS 433455
2012 09 18.37097 00 14 07.40 +04 46 32.8 20.4 V G96 – Mt. Lemmon Survey MPS 433455
2012 09 24.26521 00 09 44.56 +04 15 02.5 20.1 V G96 – Mt. Lemmon Survey MPS 433455
2012 09 24.27041 00 09 44.38 +04 15 01.4 20.2 V G96 – Mt. Lemmon Survey MPS 433455
2012 09 24.27571 00 09 44.10 +04 14 59.6 20.1 V G96 – Mt. Lemmon Survey MPS 433455
2012 09 24.28098 00 09 43.84 +04 14 57.8 20.4 V G96 – Mt. Lemmon Survey MPS 433455
2012 09 25.30326 00 08 57.76 +04 09 19.5 19.8 V G96 – Mt. Lemmon Survey MPS 433455
2012 09 25.30847 00 08 57.48 +04 09 17.2 19.9 V G96 – Mt. Lemmon Survey MPS 433455
2012 09 25.31377 00 08 57.22 +04 09 15.6 20.0 V G96 – Mt. Lemmon Survey MPS 433455
2012 09 25.31909 00 08 56.97 +04 09 13.7 19.8 V G96 – Mt. Lemmon Survey MPS 433455
2012 10 05.26168 00 01 36.91 +03 13 26.2 20.6 V G96 – Mt. Lemmon Survey MPS 434238
2012 10 05.26851 00 01 36.58 +03 13 24.1 20.4 V G96 – Mt. Lemmon Survey MPS 434238
2012 10 05.27536 00 01 36.33 +03 13 22.0 20.3 V G96 – Mt. Lemmon Survey MPS 434238
2012 10 05.28221 00 01 35.94 +03 13 19.5 20.3 V G96 – Mt. Lemmon Survey MPS 434238
2012 10 11.19206 23 57 35.35 +02 41 03.3 20.4 V G96 – Mt. Lemmon Survey MPS 435173
2012 10 11.19882 23 57 35.10 +02 41 00.6 20.4 V G96 – Mt. Lemmon Survey MPS 435173
2012 10 11.20568 23 57 34.84 +02 40 58.1 20.1 V G96 – Mt. Lemmon Survey MPS 435173
2012 10 11.21250 23 57 34.56 +02 40 56.2 20.4 V G96 – Mt. Lemmon Survey MPS 435173
2012 10 22.307099 23 51 25.025 +01 47 14.96 20.4 i F51 – Pan-STARRS 1, Haleakala MPS 437920
2012 10 22.319151 23 51 24.678 +01 47 11.82 20.2 i F51 – Pan-STARRS 1, Haleakala MPS 437920
2012 10 22.331394 23 51 24.328 +01 47 08.69 20.4 r F51 – Pan-STARRS 1, Haleakala MPS 437920
2012 11 04.17323 23 47 21.69 +01 03 07.7 20.8 V G96 – Mt. Lemmon Survey MPS 439536
2012 11 04.18082 23 47 21.58 +01 03 06.3 21.2 V G96 – Mt. Lemmon Survey MPS 439536
2012 11 04.18840 23 47 21.55 +01 03 05.3 20.8 V G96 – Mt. Lemmon Survey MPS 439536
2012 11 04.19539 23 47 21.48 +01 03 04.2 20.8 V G96 – Mt. Lemmon Survey MPS 439536
2013 12 07.36434 07 30 51.27 +19 00 50.8 20.9 V 691 – Steward Observatory, Kitt Peak-Spacewatch MPS 491982
2013 12 07.38411 07 30 50.62 +19 00 51.3 21.5 V 691 – Steward Observatory, Kitt Peak-Spacewatch MPS 491982
2013 12 07.39935 07 30 50.14 +19 00 51.2 20.8 V 691 – Steward Observatory, Kitt Peak-Spacewatch MPS 491982
2013 12 11.56293 07 28 30.136 +19 01 10.80 20.8 w F51 – Pan-STARRS 1, Haleakala MPS 491982
2013 12 11.57805 07 28 29.573 +19 01 11.01 20.7 w F51 – Pan-STARRS 1, Haleakala MPS 491982
2013 12 11.59318 07 28 28.985 +19 01 10.98 20.6 w F51 – Pan-STARRS 1, Haleakala MPS 491982
2013 12 11.60831 07 28 28.411 +19 01 11.08 20.8 w F51 – Pan-STARRS 1, Haleakala MPS 491982
2013 12 30.37307 07 13 55.826 +19 12 47.17 20.3 w F51 – Pan-STARRS 1, Haleakala MPS 495209
2013 12 30.38631 07 13 55.097 +19 12 48.04 20.4 w F51 – Pan-STARRS 1, Haleakala MPS 495209
2013 12 30.38830 07 13 54.984 +19 12 48.23 20.4 w F51 – Pan-STARRS 1, Haleakala MPS 495209
2013 12 30.40144 07 13 54.253 +19 12 48.94 20.5 w F51 – Pan-STARRS 1, Haleakala MPS 495209
2013 12 30.40344 07 13 54.143 +19 12 48.97 20.4 w F51 – Pan-STARRS 1, Haleakala MPS 495209
2013 12 30.41664 07 13 53.411 +19 12 49.98 20.3 w F51 – Pan-STARRS 1, Haleakala MPS 495209
2013 12 30.41864 07 13 53.298 +19 12 49.99 20.4 w F51 – Pan-STARRS 1, Haleakala MPS 495209
2014 01 10.32293 07 03 56.792 +19 24 09.62 20.3 i F51 – Pan-STARRS 1, Haleakala MPS 496908
2014 01 10.33668 07 03 56.041 +19 24 10.39 20.2 i F51 – Pan-STARRS 1, Haleakala MPS 496908
2015 02 27.55623 12 39 10.692 -07 03 29.88 21.6 w F51 – Pan-STARRS 1, Haleakala MPS 585538
2015 02 27.56877 12 39 10.302 -07 03 27.69 21.7 w F51 – Pan-STARRS 1, Haleakala MPS 585538
2015 02 27.58129 12 39 09.922 -07 03 25.32 21.6 w F51 – Pan-STARRS 1, Haleakala MPS 585538
2015 03 22.30686 12 24 32.21 -05 27 48.8 20.8 V G96 – Mt. Lemmon Survey MPS 595070
2015 03 22.31144 12 24 32.03 -05 27 48.1 21.7 V G96 – Mt. Lemmon Survey MPS 595070
2015 03 22.31603 12 24 31.82 -05 27 46.3 21.3 V G96 – Mt. Lemmon Survey MPS 595070
2015 03 22.32060 12 24 31.56 -05 27 44.0 21.0 V G96 – Mt. Lemmon Survey MPS 595070
